Location: Newark
(44.3449°N, 4.8694°E)
Time: 11:34:28
(UTC+00:00)

Envisat - Pass Details

Date: 28 January 2020
Orbit: 764 x 766 km, 98.1° (Epoch: 23 February)

Event Time Altitude Azimuth Distance (km) Brightness Sun altitude
Rises 18:56:52 0° 216° (SW) 3,221 6.8 -23.8°
Reaches altitude 10° 19:00:25 10° 242° (WSW) 2,301 6.3 -24.4°
Maximum altitude 19:02:53 14° 272° (W) 2,067 6.2 -24.9°
Drops below altitude 10° 19:05:21 10° 301° (WNW) 2,310 6.2 -25.3°
Sets 19:08:57 0° 328° (NNW) 3,242 6.7 -26.0°
